Starlink 3617

operational
NORAD ID: 51780 Int'l Des: 2022-017 Owner: SPXS Country: US Constellation: starlink
LEOCIRCULAR

About Starlink 3617

Description loading...

Live Position

Loading 3D Globe...

Upcoming Passes

Altitude History

Altitude vs Time

uPlot chart will show altitude changes over time

Two-Line Element Set

1 51780U 22017N 25350.71036596 .00002211 00000-0 15699-3 0 9994
2 51780 53.2193 351.6205 0001405 91.6689 268.4464 15.08837396209899
Epoch: Dec 16, 2025 • Age: 14 hours

Current Status

Altitude 540.9 km
Velocity 7.59 km/s
Sub-Earth Point -1.96°S, 14.17°W
Launch Date Feb 25, 2022
Age 3.8 years
Type internet

Technical Details

Classification Payload
Mass 297.00 kg
Dry Mass 275.00 kg
Total Mass 297.00 kg
Length 0.20 m
Diameter 2.80 m
Span 9.00 m
Shape Box + pan
Manufacturer SPXS
Bus Type Starlink
Phase Status In Orbit
Owner/State SPXS/US

Large Constellations

Loading constellations...